New River MCAS, NC

4:33 PM EDT on April 24, 2017 (GMT -0400)
New River Marine Corps Air Station

Weather History for KNCA - November, 2011

Change the Weather History Date:

Tuesday, November 8, 2011

  Actual Average Record
Temperature  
Mean Temperature 58 °F -  
Max Temperature 70 °F 65 °F 80 °F (1996)
Min Temperature 46 °F 43 °F 30 °F (1998)
Degree Days  
Heating Degree Days 7    
Growing Degree Days 8 (Base 50)    
Moisture  
Dew Point 48 °F    
Average Humidity 73    
Maximum Humidity 96    
Minimum Humidity 39    
Precipitation  
Precipitation 0.01 in - - ()
Sea Level Pressure  
Sea Level Pressure 30.24 in    
Wind  
Wind Speed 3 mph (NNE)    
Max Wind Speed 13 mph    
Max Gust Speed -    
Visibility 10 miles    
Events      
Averages and records for this station are not official NWS values.
T = Trace of Precipitation, MM = Missing Value Source: NWS Daily Summary

Daily Weather History Graph

Daily Weather History Graph

Search for Another Location

Airport or City:

Trip Planner

Search our weather history database for the weather conditions in past years. The results will help you decide how hot, cold, wet, or windy it might be!

Date:

Astronomy

Nov. 08, 2011 Rise Set
Actual Time 6:36 AM EST 5:09 PM EST
Civil Twilight 6:10 AM EST 5:36 PM EST
Nautical Twilight 5:40 AM EST 6:06 PM EST
Astronomical Twilight 5:10 AM EST 6:36 PM EST
Moon 3:47 PM EST (11/8) 4:36 AM EST (11/8)
Length of Visible Light 11h 26m
Length of Day
10h 33m
Waxing Gibbous, 96% of the Moon is Illuminated
Nov 8
Waxing Gibbous
Nov 10
Full
Nov 18
Last Quarter
Nov 25
New
Dec 2
First Quarter

Hourly Weather History & Observations

Time (EST) Temp. Windchill Dew Point Humidity Pressure Visibility Wind Dir Wind Speed Gust Speed Precip Events Conditions
12:56 AM 50.0 °F - 48.0 °F 93% 30.28 in 10.0 mi Calm Calm - N/A   Clear
1:56 AM 51.1 °F - 48.0 °F 89% 30.27 in 10.0 mi Calm Calm - N/A   Clear
2:56 AM 51.1 °F - 48.0 °F 89% 30.26 in 10.0 mi Calm Calm - N/A   Clear
3:56 AM 50.0 °F - 46.9 °F 89% 30.25 in 10.0 mi Calm Calm - N/A   Clear
4:56 AM 48.9 °F - 46.0 °F 90% 30.27 in 10.0 mi Calm Calm - N/A   Clear
5:56 AM 48.0 °F - 46.0 °F 93% 30.27 in 10.0 mi North 3.5 mph - 0.01 in   Clear
6:56 AM 46.0 °F 44.8 °F 45.0 °F 96% 30.28 in 10.0 mi NNE 3.5 mph - N/A   Clear
7:56 AM 51.1 °F - 48.9 °F 92% 30.29 in 10.0 mi North 4.6 mph - N/A   Clear
8:56 AM 57.9 °F - 51.1 °F 78% 30.29 in 10.0 mi NNE 6.9 mph - N/A   Clear
9:56 AM 63.0 °F - 50.0 °F 63% 30.29 in 10.0 mi NNE 8.1 mph - N/A   Clear
10:56 AM 66.0 °F - 48.9 °F 54% 30.28 in 10.0 mi NNE 12.7 mph - N/A   Clear
11:56 AM 68.0 °F - 46.9 °F 47% 30.25 in 10.0 mi NNE 12.7 mph - N/A   Clear
12:56 PM 69.1 °F - 45.0 °F 42% 30.22 in 10.0 mi NE 6.9 mph - N/A   Clear
1:56 PM 70.0 °F - 45.0 °F 41% 30.20 in 10.0 mi NNE 10.4 mph - N/A   Clear
2:56 PM 70.0 °F - 44.1 °F 39% 30.19 in 10.0 mi NNE 5.8 mph - N/A   Clear
3:56 PM 69.1 °F - 44.1 °F 40% 30.19 in 10.0 mi North 5.8 mph - N/A   Clear
4:56 PM 66.0 °F - 45.0 °F 47% 30.19 in 10.0 mi NNW 8.1 mph - N/A   Clear
5:56 PM 60.1 °F - 48.9 °F 67% 30.19 in 10.0 mi Calm Calm - N/A   Clear
6:56 PM 54.0 °F - 48.9 °F 83% 30.20 in 10.0 mi Calm Calm - N/A   Clear
7:56 PM 57.0 °F - 48.9 °F 74% 30.20 in 10.0 mi NNE 6.9 mph - N/A   Clear
8:56 PM 55.9 °F - 50.0 °F 80% 30.21 in 10.0 mi North 3.5 mph - N/A   Clear
9:56 PM 54.0 °F - 51.1 °F 90% 30.22 in 10.0 mi Calm Calm - N/A   Clear
10:56 PM 53.1 °F - 51.1 °F 93% 30.20 in 10.0 mi NNE 3.5 mph - N/A   Clear
11:56 PM 53.1 °F - 51.1 °F 93% 30.18 in 10.0 mi North 4.6 mph - N/A   Clear